TimeCST,TemperatureF,Dew PointF,Humidity,Sea Level PressureIn,VisibilityMPH,Wind Direction,Wind SpeedMPH,Gust SpeedMPH,PrecipitationIn,Events,Conditions,WindDirDegrees,DateUTC
12:53 AM,36.0,28.0,73,30.17,10.0,WNW,6.9,-,N/A,,Clear,290,2013-02-03 06:53:00
1:53 AM,34.0,28.0,79,30.18,10.0,WNW,8.1,-,N/A,,Clear,300,2013-02-03 07:53:00
2:53 AM,36.0,27.0,70,30.19,10.0,WNW,11.5,-,N/A,,Clear,300,2013-02-03 08:53:00
3:53 AM,36.0,26.1,67,30.19,10.0,NW,18.4,26.5,N/A,,Clear,320,2013-02-03 09:53:00
4:53 AM,35.1,25.0,67,30.22,10.0,NW,15.0,-,N/A,,Clear,320,2013-02-03 10:53:00
5:53 AM,33.1,24.1,70,30.24,10.0,NW,12.7,-,N/A,,Clear,320,2013-02-03 11:53:00
6:53 AM,30.9,23.0,72,30.26,10.0,WNW,8.1,-,N/A,,Clear,300,2013-02-03 12:53:00
7:53 AM,30.9,23.0,72,30.29,10.0,NW,8.1,-,N/A,,Clear,310,2013-02-03 13:53:00
8:53 AM,34.0,21.9,61,30.31,10.0,NW,11.5,-,N/A,,Clear,320,2013-02-03 14:53:00
9:53 AM,36.0,16.0,44,30.29,10.0,North,10.4,-,N/A,,Clear,350,2013-02-03 15:53:00
10:53 AM,37.0,15.1,41,30.27,10.0,North,4.6,-,N/A,,Clear,360,2013-02-03 16:53:00
11:53 AM,37.9,16.0,41,30.24,10.0,SE,4.6,-,N/A,,Clear,130,2013-02-03 17:53:00
12:53 PM,42.1,18.0,38,30.17,10.0,SE,6.9,-,N/A,,Clear,130,2013-02-03 18:53:00
1:53 PM,45.0,19.0,36,30.15,10.0,SSE,8.1,-,N/A,,Clear,160,2013-02-03 19:53:00
2:53 PM,46.9,19.9,34,30.11,10.0,South,10.4,-,N/A,,Clear,180,2013-02-03 20:53:00
3:53 PM,48.0,21.0,34,30.07,10.0,South,10.4,-,N/A,,Clear,170,2013-02-03 21:53:00
4:53 PM,46.0,21.9,39,30.03,10.0,South,12.7,-,N/A,,Clear,180,2013-02-03 22:53:00
5:53 PM,41.0,24.1,51,30.02,10.0,South,9.2,-,N/A,,Clear,170,2013-02-03 23:53:00
6:53 PM,41.0,25.0,53,30.01,10.0,South,9.2,-,N/A,,Clear,180,2013-02-04 00:53:00
7:53 PM,41.0,25.0,53,29.98,10.0,South,9.2,-,N/A,,Clear,180,2013-02-04 01:53:00
8:53 PM,41.0,26.1,55,29.94,10.0,South,13.8,-,N/A,,Clear,180,2013-02-04 02:53:00
9:53 PM,39.0,26.1,60,29.93,10.0,South,9.2,-,N/A,,Clear,180,2013-02-04 03:53:00
10:53 PM,39.9,26.1,58,29.89,10.0,South,8.1,-,N/A,,Clear,180,2013-02-04 04:53:00
11:53 PM,42.1,26.1,53,29.86,10.0,South,12.7,-,N/A,,Clear,180,2013-02-04 05:53:00